,,PA_Meas_PMT16A,,PR_Meas_QMR101_102,,RH_Meas_QMH101,,SR_Meas_QMS101,,TA_Meas_QMH101,,GenWind,,GenWind,
time,status,PA,status,PR,status,RH,status,SR,status,TA,status,DirAvg,status,SpdAvg,
2013-07-13, 00:00:05,VALID,918.251,VALID,0,VALID,96.5811,VALID,0,VALID,18.1459,VALID,131,VALID,0,
2013-07-13, 00:01:05,VALID,918.25,VALID,0,VALID,96.5963,VALID,0,VALID,18.1654,VALID,131,VALID,0,
2013-07-13, 00:02:05,VALID,918.24,VALID,0,VALID,96.5963,VALID,0,VALID,18.1445,VALID,131,VALID,0,
2013-07-13, 00:03:05,VALID,918.255,VALID,0,VALID,96.6268,VALID,0,VALID,18.1445,VALID,131,VALID,0,
2013-07-13, 00:04:05,VALID,918.258,VALID,0,VALID,96.6115,VALID,0,VALID,18.1654,VALID,131,VALID,0,
2013-07-13, 00:05:05,VALID,918.254,VALID,0,VALID,96.6497,VALID,0,VALID,18.1445,VALID,131,VALID,0,
2013-07-13, 00:06:05,VALID,918.289,VALID,0,VALID,96.6725,VALID,0,VALID,18.1835,VALID,131,VALID,0,
2013-07-13, 00:07:05,VALID,918.302,VALID,0,VALID,96.6878,VALID,0,VALID,18.1835,VALID,131,VALID,0,
2013-07-13, 00:08:05,VALID,918.333,VALID,0,VALID,96.6878,VALID,0,VALID,18.2238,VALID,131,VALID,0,
2013-07-13, 00:09:05,VALID,918.36,VALID,0,VALID,96.6954,VALID,0,VALID,18.2225,VALID,131,VALID,0,
2013-07-13, 00:10:05,VALID,918.395,VALID,0,VALID,96.7259,VALID,0,VALID,18.2225,VALID,131,VALID,0,
2013-07-13, 00:11:05,VALID,918.383,VALID,0,VALID,96.7335,VALID,0,VALID,18.242,VALID,131,VALID,0,
2013-07-13, 00:12:05,VALID,918.397,VALID,0,VALID,96.7183,VALID,0,VALID,18.2628,VALID,131,VALID,0,
2013-07-13, 00:13:05,VALID,918.408,VALID,0,VALID,96.7335,VALID,0,VALID,18.242,VALID,131,VALID,0,
2013-07-13, 00:14:05,VALID,918.376,VALID,0,VALID,96.7335,VALID,0,VALID,18.2823,VALID,131,VALID,0,
2013-07-13, 00:15:05,VALID,918.394,VALID,0,VALID,96.7411,VALID,0,VALID,18.3018,VALID,131,VALID,0,
2013-07-13, 00:16:05,VALID,918.398,VALID,0,VALID,96.7564,VALID,0,VALID,18.3213,VALID,131,VALID,0,
2013-07-13, 00:17:05,VALID,918.387,VALID,0,VALID,96.7716,VALID,0,VALID,18.3408,VALID,131,VALID,0,
2013-07-13, 00:18:05,VALID,918.378,VALID,0,VALID,96.7716,VALID,0,VALID,18.3603,VALID,131,VALID,0,
2013-07-13, 00:19:05,VALID,918.373,VALID,0,VALID,96.7335,VALID,0,VALID,18.2628,VALID,131,VALID,0,
2013-07-13, 00:20:05,VALID,918.362,VALID,0,VALID,96.642,VALID,0,VALID,18.1459,VALID,131,VALID,0,
2013-07-13, 00:21:05,VALID,918.358,VALID,0,VALID,96.5887,VALID,0,VALID,18.0679,VALID,131,VALID,0,
2013-07-13, 00:22:05,VALID,918.334,VALID,0,VALID,96.5353,VALID,0,VALID,17.9899,VALID,131,VALID,0,
2013-07-13, 00:23:05,VALID,918.297,VALID,0,VALID,96.642,VALID,0,VALID,18.0665,VALID,46,VALID,0,
2013-07-13, 00:24:05,VALID,918.303,VALID,0,VALID,96.6802,VALID,0,VALID,18.0665,VALID,40,VALID,0,
2013-07-13, 00:25:05,VALID,918.301,VALID,0,VALID,96.7564,VALID,0,VALID,18.1849,VALID,20,VALID,0,
2013-07-13, 00:26:05,VALID,918.349,VALID,0,VALID,96.764,VALID,0,VALID,18.2406,VALID,16,VALID,0,
2013-07-13, 00:27:05,VALID,918.349,VALID,0,VALID,96.7869,VALID,0,VALID,18.3784,VALID,319,VALID,0,
2013-07-13, 00:28:05,VALID,918.337,VALID,0,VALID,96.8326,VALID,0,VALID,18.4745,VALID,319,VALID,0,
2013-07-13, 00:29:05,VALID,918.314,VALID,0,VALID,96.825,VALID,0,VALID,18.5344,VALID,319,VALID,0,
2013-07-13, 00:30:05,VALID,918.269,VALID,0,VALID,96.8021,VALID,0,VALID,18.5539,VALID,319,VALID,0,
2013-07-13, 00:31:05,VALID,918.263,VALID,0,VALID,96.8174,VALID,0,VALID,18.572,VALID,319,VALID,0,
2013-07-13, 00:32:05,VALID,918.285,VALID,0,VALID,96.7945,VALID,0,VALID,18.6109,VALID,325,VALID,0,
2013-07-13, 00:33:05,VALID,918.169,VALID,0,VALID,96.7488,VALID,0,VALID,18.6319,VALID,355,VALID,0,
2013-07-13, 00:34:05,VALID,918.187,VALID,0,VALID,96.6878,VALID,0,VALID,18.6319,VALID,339,VALID,0,
2013-07-13, 00:35:05,VALID,918.212,VALID,0,VALID,96.642,VALID,0,VALID,18.7084,VALID,20,VALID,0,
2013-07-13, 00:36:05,VALID,918.228,VALID,0,VALID,96.5506,VALID,0,VALID,18.7683,VALID,340,VALID,0,
2013-07-13, 00:37:05,VALID,918.134,VALID,0,VALID,96.4972,VALID,0,VALID,18.8059,VALID,272,VALID,0,
2013-07-13, 00:38:05,VALID,918.205,VALID,0,VALID,96.4438,VALID,0,VALID,18.8268,VALID,300,VALID,0,
2013-07-13, 00:39:05,VALID,918.171,VALID,0,VALID,96.3981,VALID,0.107441,VALID,18.8254,VALID,7,VALID,0,
2013-07-13, 00:40:05,VALID,918.166,VALID,0,VALID,96.3219,VALID,0.107441,VALID,18.8059,VALID,350,VALID,0,
2013-07-13, 00:41:05,VALID,918.133,VALID,0,VALID,96.2914,VALID,0,VALID,18.8282,VALID,351,VALID,0,
2013-07-13, 00:42:05,VALID,918.115,VALID,0,VALID,96.2151,VALID,0,VALID,18.8073,VALID,13,VALID,0,
2013-07-13, 00:43:05,VALID,918.047,VALID,0,VALID,96.1618,VALID,0,VALID,18.7878,VALID,14,VALID,0,
2013-07-13, 00:44:05,VALID,918.083,VALID,0,VALID,96.0703,VALID,0,VALID,18.7878,VALID,11,VALID,0,
2013-07-13, 00:45:05,VALID,918.089,VALID,0,VALID,96.0017,VALID,0,VALID,18.7892,VALID,10,VALID,0,
2013-07-13, 00:46:05,VALID,918.12,VALID,0,VALID,96.0093,VALID,0,VALID,18.8087,VALID,10,VALID,0,
2013-07-13, 00:47:05,VALID,918.099,VALID,0,VALID,95.9788,VALID,0,VALID,18.8087,VALID,9,VALID,0,
2013-07-13, 00:48:05,VALID,918.103,VALID,0,VALID,95.9102,VALID,0,VALID,18.7878,VALID,10,VALID,0,
2013-07-13, 00:49:05,VALID,918.132,VALID,0,VALID,95.8645,VALID,0,VALID,18.7488,VALID,360,VALID,0,
2013-07-13, 00:50:05,VALID,918.117,VALID,0,VALID,95.7958,VALID,0,VALID,18.7697,VALID,360,VALID,0,
2013-07-13, 00:51:05,VALID,918.138,VALID,0,VALID,95.7654,VALID,0,VALID,18.7308,VALID,2,VALID,0,
2013-07-13, 00:52:05,VALID,918.09,VALID,0,VALID,95.7272,VALID,0,VALID,18.6903,VALID,2,VALID,0,
2013-07-13, 00:53:05,VALID,918.098,VALID,0,VALID,95.651,VALID,0,VALID,18.6513,VALID,2,VALID,0,
2013-07-13, 00:54:05,VALID,918.063,VALID,0,VALID,95.651,VALID,0,VALID,18.6319,VALID,2,VALID,0,
2013-07-13, 00:55:05,VALID,918.056,VALID,0,VALID,95.6739,VALID,0,VALID,18.6333,VALID,2,VALID,0,
2013-07-13, 00:56:05,VALID,918.038,VALID,0,VALID,95.4223,VALID,0,VALID,18.5358,VALID,2,VALID,0,
2013-07-13, 00:57:05,VALID,918.036,VALID,0,VALID,95.1402,VALID,0,VALID,18.3979,VALID,2,VALID,0,
2013-07-13, 00:58:05,VALID,917.997,VALID,0,VALID,95.3613,VALID,0,VALID,18.3199,VALID,2,VALID,0,
2013-07-13, 00:59:05,VALID,917.985,VALID,0,VALID,95.712,VALID,0,VALID,18.3993,VALID,359,VALID,0,
2013-07-13, 01:00:05,VALID,917.936,VALID,0,VALID,95.8263,VALID,0,VALID,18.4383,VALID,360,VALID,0,
2013-07-13, 01:01:05,VALID,917.934,VALID,0,VALID,95.9407,VALID,0,VALID,18.4759,VALID,7,VALID,0,
2013-07-13, 01:02:05,VALID,917.921,VALID,0,VALID,96.0093,VALID,0,VALID,18.4954,VALID,5,VALID,0,
2013-07-13, 01:03:05,VALID,917.902,VALID,0,VALID,96.0169,VALID,0,VALID,18.5344,VALID,345,VALID,0,
2013-07-13, 01:04:05,VALID,917.879,VALID,0,VALID,96.0093,VALID,0,VALID,18.5358,VALID,348,VALID,0,
2013-07-13, 01:05:05,VALID,917.905,VALID,0,VALID,96.0398,VALID,0,VALID,18.5553,VALID,358,VALID,0,
2013-07-13, 01:06:05,VALID,917.902,VALID,0,VALID,96.0474,VALID,0,VALID,18.5748,VALID,360,VALID,0,
2013-07-13, 01:07:05,VALID,917.906,VALID,0,VALID,96.0322,VALID,0,VALID,18.5539,VALID,360,VALID,0,
2013-07-13, 01:08:05,VALID,917.866,VALID,0,VALID,95.9941,VALID,0,VALID,18.5553,VALID,359,VALID,0,
2013-07-13, 01:09:05,VALID,917.855,VALID,0,VALID,96.0322,VALID,0,VALID,18.5748,VALID,359,VALID,0,
2013-07-13, 01:10:05,VALID,917.856,VALID,0,VALID,96.055,VALID,0,VALID,18.5539,VALID,359,VALID,0,
2013-07-13, 01:11:05,VALID,917.857,VALID,0,VALID,96.0627,VALID,0,VALID,18.572,INVALID,360,VALID,0,
2013-07-13, 01:12:05,VALID,917.829,VALID,0,VALID,96.1618,VALID,0,VALID,18.6304,VALID,328,VALID,0,
2013-07-13, 01:13:05,VALID,917.817,VALID,0,VALID,96.1694,VALID,0,VALID,18.6319,VALID,328,VALID,0,
2013-07-13, 01:14:05,VALID,917.826,VALID,0,VALID,96.1465,VALID,0,VALID,18.6319,VALID,328,VALID,0,
2013-07-13, 01:15:05,VALID,917.838,VALID,0,VALID,96.1008,VALID,0,VALID,18.5929,VALID,328,VALID,0,
2013-07-13, 01:16:05,VALID,917.829,VALID,0,VALID,96.1084,VALID,0,VALID,18.5929,VALID,35,VALID,0,
2013-07-13, 01:17:05,VALID,917.833,VALID,0,VALID,96.1389,VALID,0,VALID,18.572,VALID,18,VALID,0,
2013-07-13, 01:18:05,VALID,917.837,VALID,0,VALID,96.1465,VALID,0,VALID,18.5929,VALID,6,VALID,0,
2013-07-13, 01:19:05,VALID,917.803,VALID,0,VALID,96.1236,VALID,0,VALID,18.5734,VALID,7,VALID,0,
2013-07-13, 01:20:05,VALID,917.805,VALID,0,VALID,96.1618,VALID,0,VALID,18.5734,VALID,15,VALID,0,
2013-07-13, 01:21:05,VALID,917.776,VALID,0,VALID,96.1389,VALID,0,VALID,18.5344,VALID,358,VALID,0,
2013-07-13, 01:22:05,VALID,917.762,VALID,0,VALID,96.177,VALID,0,VALID,18.5734,VALID,359,VALID,0,
2013-07-13, 01:23:05,VALID,917.774,VALID,0,VALID,96.2914,VALID,0,VALID,18.6109,VALID,350,VALID,0,
2013-07-13, 01:24:05,VALID,917.792,VALID,0,VALID,96.3295,VALID,0.107441,VALID,18.6708,VALID,349,VALID,0,
2013-07-13, 01:25:05,VALID,917.796,VALID,0,VALID,96.3371,VALID,0,VALID,18.6889,VALID,349,VALID,0,
2013-07-13, 01:26:05,VALID,917.755,VALID,0,VALID,96.3219,VALID,0,VALID,18.7113,VALID,4,VALID,0,
2013-07-13, 01:27:05,VALID,917.764,VALID,0,VALID,96.3142,VALID,0,VALID,18.7308,VALID,356,VALID,0,
2013-07-13, 01:28:05,VALID,917.763,VALID,0,VALID,96.238,VALID,0,VALID,18.6918,VALID,358,VALID,0,
2013-07-13, 01:29:05,VALID,917.725,VALID,0,VALID,96.0932,VALID,0,VALID,18.6333,VALID,1,VALID,0,
2013-07-13, 01:30:05,VALID,917.735,VALID,0,VALID,96.1084,VALID,0,VALID,18.6138,VALID,12,VALID,0,
2013-07-13, 01:31:05,VALID,917.731,VALID,0,VALID,96.2228,VALID,0,VALID,18.6513,VALID,14,VALID,0,
2013-07-13, 01:32:05,VALID,917.73,VALID,0,VALID,96.2304,VALID,0,VALID,18.6723,VALID,8,VALID,0,
2013-07-13, 01:33:05,VALID,917.702,VALID,0,VALID,96.2533,VALID,0,VALID,18.6918,VALID,347,VALID,0,
2013-07-13, 01:34:05,VALID,917.704,VALID,0,VALID,96.299,VALID,0,VALID,18.7308,VALID,20,VALID,0,
2013-07-13, 01:35:05,VALID,917.696,VALID,0,VALID,96.2914,VALID,0,VALID,18.7503,VALID,9,VALID,0,
2013-07-13, 01:36:05,VALID,917.707,VALID,0,VALID,96.299,VALID,0,VALID,18.7892,VALID,6,VALID,0,
2013-07-13, 01:37:05,VALID,917.687,VALID,0,VALID,96.3142,VALID,0,VALID,18.8087,VALID,6,VALID,0,
2013-07-13, 01:38:05,VALID,917.696,VALID,0,VALID,96.3219,VALID,0,VALID,18.8477,VALID,4,VALID,0,
2013-07-13, 01:39:05,VALID,917.651,VALID,0,VALID,96.3447,VALID,0,VALID,18.8867,VALID,352,VALID,0,
2013-07-13, 01:40:05,VALID,917.629,VALID,0,VALID,96.3142,VALID,0,VALID,18.9062,VALID,2,VALID,0,
2013-07-13, 01:41:05,VALID,917.58,VALID,0,VALID,96.2533,VALID,0,VALID,18.8839,VALID,13,VALID,0,
2013-07-13, 01:42:05,VALID,917.535,VALID,0,VALID,96.2151,VALID,0,VALID,18.9048,VALID,357,VALID,0,
2013-07-13, 01:43:05,VALID,917.518,VALID,0,VALID,96.177,VALID,0,VALID,18.9048,VALID,352,VALID,0,
2013-07-13, 01:44:05,VALID,917.496,VALID,0,VALID,96.0627,VALID,0,VALID,18.8658,VALID,5,VALID,0,
2013-07-13, 01:45:05,VALID,917.486,VALID,0,VALID,96.0932,VALID,0,VALID,18.8853,VALID,358,VALID,0,
2013-07-13, 01:46:05,VALID,917.468,VALID,0,VALID,96.055,VALID,0,VALID,18.8463,VALID,13,VALID,0,
2013-07-13, 01:47:05,VALID,917.468,VALID,0,VALID,96.1236,VALID,0,VALID,18.8853,VALID,12,VALID,0,
2013-07-13, 01:48:05,VALID,917.449,VALID,0,VALID,96.055,VALID,0,VALID,18.8254,VALID,12,VALID,0,
2013-07-13, 01:49:05,VALID,917.435,VALID,0,VALID,96.055,VALID,0,VALID,18.8463,VALID,13,VALID,0,
2013-07-13, 01:50:04,VALID,917.429,VALID,0,VALID,96.0474,VALID,0,VALID,18.8463,VALID,358,VALID,0,
2013-07-13, 01:51:04,VALID,917.43,VALID,0,VALID,96.055,VALID,0,VALID,18.8268,VALID,358,VALID,0,
2013-07-13, 01:52:04,VALID,917.387,VALID,0,VALID,96.0322,VALID,0,VALID,18.8073,VALID,14,VALID,0,
2013-07-13, 01:53:04,VALID,917.41,VALID,0,VALID,95.9788,VALID,0,VALID,18.7488,VALID,14,VALID,0,
2013-07-13, 01:54:04,VALID,917.405,VALID,0,VALID,95.9788,VALID,0,VALID,18.7683,VALID,14,VALID,0,
2013-07-13, 01:55:04,VALID,917.395,VALID,0,VALID,95.9941,VALID,0,VALID,18.7683,VALID,14,VALID,0,
2013-07-13, 01:56:04,VALID,917.706,VALID,0,VALID,96.0017,VALID,0.107441,VALID,18.7279,VALID,7,VALID,0,
2013-07-13, 01:57:04,VALID,917.404,VALID,0,VALID,96.0474,VALID,0,VALID,18.7279,VALID,354,VALID,0,
2013-07-13, 01:58:04,VALID,917.383,VALID,0,VALID,96.0169,VALID,0,VALID,18.7098,VALID,354,VALID,0,
2013-07-13, 01:59:04,VALID,917.334,VALID,0,VALID,95.9941,VALID,0,VALID,18.6708,VALID,354,VALID,0,
2013-07-13, 02:00:04,VALID,917.344,VALID,0,VALID,95.9788,VALID,0,VALID,18.6109,VALID,354,VALID,0,
2013-07-13, 02:01:04,VALID,917.312,VALID,0,VALID,95.9712,VALID,0,VALID,18.6124,VALID,354,VALID,0,
2013-07-13, 02:02:04,VALID,917.303,VALID,0,VALID,96.0322,VALID,0.107441,VALID,18.6109,VALID,354,VALID,0,
2013-07-13, 02:03:04,VALID,917.287,VALID,0,VALID,95.9712,VALID,0,VALID,18.5734,VALID,354,VALID,0,
2013-07-13, 02:04:04,VALID,917.234,VALID,0,VALID,96.0932,VALID,0.107441,VALID,18.6109,VALID,354,VALID,0,
2013-07-13, 02:05:04,VALID,917.232,VALID,0,VALID,96.1236,VALID,0,VALID,18.5914,VALID,354,VALID,0,
2013-07-13, 02:06:04,VALID,917.235,VALID,0,VALID,96.0627,VALID,0,VALID,18.5344,VALID,354,VALID,0,
2013-07-13, 02:07:04,VALID,917.25,VALID,0,VALID,96.1008,VALID,0.107441,VALID,18.5135,VALID,354,VALID,0,
2013-07-13, 02:08:04,VALID,917.234,VALID,0,VALID,96.1236,VALID,0,VALID,18.4954,VALID,354,VALID,0,
2013-07-13, 02:09:04,VALID,917.24,VALID,0,VALID,96.1999,VALID,0,VALID,18.5149,VALID,354,VALID,0,
2013-07-13, 02:10:04,VALID,917.211,VALID,0,VALID,96.2228,VALID,0,VALID,18.4954,VALID,349,VALID,0,
2013-07-13, 02:11:04,VALID,917.232,VALID,0,VALID,96.299,VALID,0,VALID,18.5358,VALID,6,VALID,0,
2013-07-13, 02:12:04,VALID,917.211,VALID,0,VALID,96.3371,VALID,0,VALID,18.5358,VALID,7,VALID,0,
2013-07-13, 02:13:04,VALID,917.199,VALID,0,VALID,96.3142,VALID,0,VALID,18.4968,VALID,7,VALID,0,
2013-07-13, 02:14:04,VALID,917.185,VALID,0,VALID,96.3219,VALID,0,VALID,18.4773,VALID,7,VALID,0,
2013-07-13, 02:15:04,VALID,917.157,VALID,0,VALID,96.3905,VALID,0,VALID,18.5358,VALID,7,VALID,0,
2013-07-13, 02:16:04,VALID,917.157,VALID,0,VALID,96.4057,VALID,0,VALID,18.5163,VALID,7,VALID,0,
2013-07-13, 02:17:04,VALID,917.122,VALID,0,VALID,96.4591,VALID,0,VALID,18.5358,VALID,2,VALID,0,
2013-07-13, 02:18:04,VALID,917.134,VALID,0,VALID,96.5048,VALID,0,VALID,18.5748,VALID,2,VALID,0,
2013-07-13, 02:19:04,VALID,917.134,VALID,0,VALID,96.4819,VALID,0,VALID,18.5553,INVALID,360,VALID,0,
2013-07-13, 02:20:04,VALID,917.14,VALID,0,VALID,96.5124,VALID,0,VALID,18.5358,VALID,354,VALID,0,
2013-07-13, 02:21:04,VALID,917.13,VALID,0,VALID,96.5734,VALID,0,VALID,18.6138,VALID,354,VALID,0,
2013-07-13, 02:22:04,VALID,917.094,VALID,0,VALID,96.5811,VALID,0,VALID,18.6138,VALID,354,VALID,0,
2013-07-13, 02:23:04,VALID,917.073,VALID,0,VALID,96.5963,VALID,0,VALID,18.6124,VALID,15,VALID,0,
2013-07-13, 02:24:04,VALID,917.101,VALID,0,VALID,96.6344,VALID,0,VALID,18.6723,VALID,353,VALID,0,
2013-07-13, 02:25:04,VALID,917.087,VALID,0,VALID,96.6725,VALID,0,VALID,18.7113,VALID,349,VALID,0,
2013-07-13, 02:26:04,VALID,917.09,VALID,0,VALID,96.6802,VALID,0,VALID,18.7517,INVALID,360,VALID,0,
2013-07-13, 02:27:04,VALID,917.018,VALID,0,VALID,96.6802,VALID,0,VALID,18.7697,VALID,5,VALID,0,
2013-07-13, 02:28:04,VALID,916.992,VALID,0,VALID,96.7107,VALID,0,VALID,18.7697,VALID,7,VALID,0,
2013-07-13, 02:29:04,VALID,916.98,VALID,0,VALID,96.6954,VALID,0,VALID,18.7503,VALID,7,VALID,0,
2013-07-13, 02:30:04,VALID,917.042,VALID,0,VALID,96.6573,VALID,0,VALID,18.7308,VALID,335,VALID,0,
2013-07-13, 02:31:04,VALID,917.004,VALID,0,VALID,96.6649,VALID,0,VALID,18.7503,VALID,354,VALID,0,
2013-07-13, 02:32:04,VALID,916.976,VALID,0,VALID,96.703,VALID,0,VALID,18.7683,VALID,357,VALID,0,
2013-07-13, 02:33:04,VALID,916.921,VALID,0,VALID,96.703,VALID,0,VALID,18.7503,VALID,10,VALID,0,
2013-07-13, 08:10:04,VALID,917.511,VALID,0,VALID,96.7716,VALID,130.111,VALID,18.7864,VALID,5,VALID,0,
2013-07-13, 08:11:04,VALID,917.611,VALID,0,VALID,96.764,VALID,139.459,VALID,18.8449,VALID,19,VALID,0,
2013-07-13, 08:12:04,VALID,917.389,VALID,0,VALID,96.7488,VALID,144.186,VALID,18.9062,VALID,32,VALID,0,
2013-07-13, 08:13:04,INVALID,909.173,VALID,0,VALID,96.7411,VALID,147.624,VALID,18.9243,VALID,345,VALID,0,
2013-07-13, 08:14:04,VALID,917.855,VALID,0,VALID,96.7259,VALID,157.294,VALID,19.0037,VALID,359,VALID,0,
2013-07-13, 08:15:04,VALID,917.638,VALID,0,VALID,96.7183,VALID,180.071,VALID,19.0218,VALID,17,VALID,0,
2013-07-13, 08:16:04,VALID,917.606,VALID,0,VALID,96.6954,VALID,219.61,VALID,19.0008,VALID,18,VALID,0,
2013-07-13, 08:17:04,VALID,917.682,VALID,0,VALID,96.6573,VALID,253.239,VALID,19.0593,VALID,13,VALID,0,
2013-07-13, 08:18:04,VALID,917.416,VALID,0,VALID,96.5734,VALID,234.329,VALID,19.1178,VALID,46,VALID,0,
2013-07-13, 08:19:04,VALID,917.426,VALID,0,VALID,96.6115,VALID,227.453,VALID,19.2753,VALID,29,VALID,0,
2013-07-13, 08:20:04,VALID,917.59,VALID,0,VALID,96.5887,VALID,205.213,VALID,19.3547,VALID,8,VALID,0,
2013-07-13, 08:21:04,VALID,918.163,VALID,0,VALID,96.5658,VALID,188.129,VALID,19.4118,VALID,261,VALID,0,
2013-07-13, 08:22:04,VALID,917.712,VALID,0,VALID,96.5277,VALID,182.328,VALID,19.5108,VALID,320,VALID,0,
2013-07-13, 08:23:04,VALID,917.799,VALID,0,VALID,96.5048,VALID,177.385,VALID,19.4883,VALID,348,VALID,0,
2013-07-13, 08:24:04,VALID,917.926,VALID,0,VALID,96.4667,VALID,174.377,VALID,19.5693,VALID,16,VALID,0,
2013-07-13, 08:25:04,VALID,917.578,VALID,0,VALID,96.36,VALID,177.063,VALID,19.5078,VALID,325,VALID,0,
2013-07-13, 08:26:04,VALID,917.785,VALID,0,VALID,96.1923,VALID,203.494,VALID,19.5108,VALID,29,VALID,0,
2013-07-13, 08:27:04,VALID,917.678,VALID,0,VALID,96.055,VALID,193.824,VALID,19.4478,VALID,16,VALID,0,
2013-07-13, 08:28:04,VALID,917.808,VALID,0,VALID,95.9636,VALID,201.667,VALID,19.5288,VALID,339,VALID,0,
2013-07-13, 08:29:04,VALID,917.813,VALID,0,VALID,95.8035,VALID,186.088,VALID,19.5078,VALID,346,VALID,0,
2013-07-13, 08:30:04,VALID,917.751,VALID,0,VALID,95.6434,VALID,206.932,VALID,19.5483,VALID,353,VALID,0,
2013-07-13, 08:31:04,VALID,917.786,VALID,0,VALID,95.5138,VALID,224.015,VALID,19.5258,VALID,3,VALID,0,
2013-07-13, 08:32:04,VALID,917.264,VALID,0,VALID,95.2927,VALID,189.096,VALID,19.5063,VALID,22,VALID,0,
2013-07-13, 08:33:04,VALID,917.83,VALID,0,VALID,95.4299,VALID,224.122,VALID,19.5903,VALID,9,VALID,0,
2013-07-13, 08:34:04,VALID,917.732,VALID,0,VALID,95.2851,VALID,202.849,VALID,19.5858,VALID,7,VALID,0,
2013-07-13, 08:35:04,VALID,917.755,VALID,0,VALID,95.003,VALID,289.232,VALID,19.6293,VALID,352,VALID,0,
2013-07-13, 08:36:04,VALID,917.846,VALID,0,VALID,95.1631,VALID,359.068,VALID,19.6023,VALID,30,VALID,0,
2013-07-13, 08:37:04,VALID,917.919,VALID,0,VALID,94.9039,VALID,364.118,VALID,19.8048,VALID,34,VALID,0,
2013-07-13, 08:38:04,VALID,917.784,VALID,0,VALID,94.82,VALID,363.259,VALID,19.8813,INVALID,360,VALID,0,
2013-07-13, 08:39:04,VALID,917.929,VALID,0,VALID,94.4846,VALID,256.14,VALID,19.9383,VALID,10,VALID,0,
2013-07-13, 08:40:04,VALID,917.994,VALID,0,VALID,94.7133,VALID,247.115,VALID,20.0749,VALID,347,VALID,0,
2013-07-13, 08:41:04,VALID,918.075,VALID,0,VALID,94.1568,VALID,256.677,VALID,20.1513,VALID,356,VALID,0,
2013-07-13, 08:42:04,VALID,917.68,VALID,0,VALID,94.2026,VALID,246.685,VALID,20.2489,VALID,19,VALID,0,
2013-07-13, 08:43:04,VALID,917.901,VALID,0,VALID,93.4631,VALID,228.527,VALID,20.1934,VALID,321,VALID,0,
2013-07-13, 08:44:04,VALID,917.872,VALID,0,VALID,92.7084,VALID,232.718,VALID,20.0118,VALID,30,VALID,0,
2013-07-13, 08:45:04,VALID,918.125,VALID,0,VALID,92.9142,VALID,239.701,VALID,20.0764,VALID,22,VALID,0,
2013-07-13, 08:46:04,VALID,918.593,VALID,0,VALID,92.7007,VALID,230.354,VALID,19.9938,VALID,360,VALID,0,
2013-07-13, 08:47:04,VALID,917.911,VALID,0,VALID,91.9765,VALID,222.94,VALID,20.0358,INVALID,360,VALID,0,
2013-07-13, 08:48:04,VALID,917.828,VALID,0,VALID,91.824,VALID,215.42,VALID,19.9338,VALID,354,VALID,0,
2013-07-13, 08:49:04,VALID,917.692,VALID,0,VALID,91.6563,VALID,210.477,VALID,19.9173,VALID,353,VALID,0,
2013-07-13, 08:50:04,VALID,917.799,VALID,0,VALID,91.9689,VALID,208.006,VALID,19.9398,VALID,319,VALID,0,
2013-07-13, 08:51:04,VALID,917.83,VALID,0,VALID,91.8774,VALID,205.535,VALID,19.8993,VALID,360,VALID,0,
2013-07-13, 08:52:04,VALID,917.894,VALID,0,VALID,92.6016,VALID,201.56,VALID,19.8768,VALID,346,VALID,0,
2013-07-13, 08:53:04,VALID,917.969,VALID,0,VALID,92.716,VALID,201.56,VALID,19.9368,VALID,11,VALID,0,
2013-07-13, 08:54:04,VALID,917.902,VALID,0,VALID,93.0438,VALID,207.899,VALID,19.9773,VALID,16,VALID,0,
2013-07-13, 08:55:04,VALID,917.816,VALID,0,VALID,92.8608,VALID,216.601,VALID,19.9938,VALID,326,VALID,0,
2013-07-13, 08:56:04,VALID,917.903,VALID,0,VALID,92.6931,VALID,225.949,VALID,20.0374,VALID,359,VALID,0,
2013-07-13, 08:57:04,VALID,917.864,VALID,0,VALID,92.3653,VALID,227.238,VALID,19.9938,VALID,354,VALID,0,
2013-07-13, 08:58:04,VALID,918.081,VALID,0,VALID,91.8317,VALID,229.279,VALID,19.9548,VALID,3,VALID,0,
2013-07-13, 08:59:04,VALID,917.9,VALID,0,VALID,91.9841,VALID,232.503,VALID,20.0163,VALID,322,VALID,0,
2013-07-13, 09:00:04,VALID,917.733,VALID,0,VALID,92.472,VALID,236.8,VALID,19.9728,VALID,7,VALID,0,
2013-07-13, 09:01:04,VALID,917.651,VALID,0,VALID,92.533,VALID,241.635,VALID,20.0118,VALID,356,VALID,0,
2013-07-13, 09:02:04,VALID,917.942,VALID,0,VALID,92.3348,VALID,247.33,VALID,20.0313,VALID,324,VALID,0,
2013-07-13, 09:03:04,VALID,917.923,VALID,0,VALID,91.5115,VALID,253.239,VALID,20.0553,VALID,360,VALID,0,
2013-07-13, 09:04:04,VALID,917.91,VALID,0,VALID,91.0998,VALID,258.933,VALID,19.9923,VALID,28,VALID,0,
2013-07-13, 09:05:04,VALID,917.916,VALID,0,VALID,90.9473,VALID,263.768,VALID,20.0148,VALID,347,VALID,0,
2013-07-13, 09:06:04,VALID,917.946,VALID,0,VALID,90.9321,VALID,263.875,VALID,19.9713,VALID,358,VALID,0,
2013-07-13, 09:07:04,VALID,917.756,VALID,0,VALID,90.6348,VALID,258.074,VALID,20.0328,VALID,12,VALID,0,
2013-07-13, 09:08:04,VALID,917.737,VALID,0,VALID,90.9245,VALID,250.875,VALID,20.0974,VALID,327,VALID,0,
2013-07-13, 09:09:04,VALID,917.998,VALID,0,VALID,91.1074,VALID,245.073,VALID,20.0718,VALID,20,VALID,0,
2013-07-13, 09:10:04,VALID,917.722,VALID,0,VALID,91.8774,VALID,241.85,VALID,20.1934,VALID,11,VALID,0,
2013-07-13, 09:11:04,VALID,917.888,VALID,0,VALID,91.8317,VALID,240.453,VALID,20.2083,VALID,10,VALID,0,
2013-07-13, 09:12:04,VALID,917.862,VALID,0,VALID,91.8622,VALID,240.668,VALID,20.2894,VALID,345,VALID,0,
2013-07-13, 09:13:04,VALID,917.727,VALID,0,VALID,90.8483,VALID,241.098,VALID,20.2535,VALID,10,VALID,0,
2013-07-13, 09:14:04,VALID,918.058,VALID,0,VALID,91.6945,VALID,242.28,VALID,20.2909,VALID,321,VALID,0,
2013-07-13, 09:15:04,VALID,917.967,VALID,0,VALID,91.603,VALID,242.495,VALID,20.3269,VALID,16,VALID,0,
2013-07-13, 09:16:04,VALID,917.871,VALID,0,VALID,90.955,VALID,243.677,VALID,20.3674,VALID,342,VALID,0,
2013-07-13, 09:17:04,VALID,917.941,VALID,0,VALID,90.65,VALID,244.858,VALID,20.3854,VALID,16,VALID,0,
2013-07-13, 09:18:04,VALID,917.881,VALID,0,VALID,91.5496,VALID,246.685,VALID,20.4845,VALID,30,VALID,0,
2013-07-13, 09:19:04,VALID,917.871,VALID,0,VALID,90.9855,VALID,250.23,VALID,20.504,VALID,312,VALID,0,
2013-07-13, 09:20:04,VALID,918.03,VALID,0,VALID,91.2828,VALID,254.958,VALID,20.5219,VALID,312,VALID,0,
2013-07-13, 09:21:04,VALID,917.921,VALID,0,VALID,90.6577,VALID,257.751,VALID,20.582,VALID,342,VALID,0,
2013-07-13, 09:22:04,VALID,917.861,VALID,0,VALID,88.9958,VALID,260.115,VALID,20.543,VALID,20,VALID,0,
2013-07-13, 09:23:04,VALID,918.117,VALID,0,VALID,89.3922,VALID,262.479,VALID,20.543,VALID,359,VALID,0,
2013-07-13, 09:24:04,VALID,917.914,VALID,0,VALID,89.6742,VALID,264.305,VALID,20.5609,VALID,30,VALID,0,
2013-07-13, 09:25:04,VALID,917.925,VALID,0,VALID,89.7886,VALID,265.809,VALID,20.5984,VALID,32,VALID,0,
2013-07-13, 09:26:04,VALID,917.892,VALID,0,VALID,91.1761,VALID,266.884,VALID,20.7154,VALID,20,VALID,0,
2013-07-13, 09:27:04,VALID,918.178,VALID,0,VALID,91.6182,VALID,265.057,VALID,20.8129,VALID,6,VALID,0,
2013-07-13, 09:28:04,VALID,917.911,VALID,0,VALID,91.6792,VALID,267.636,VALID,20.9511,VALID,8,VALID,0,
2013-07-13, 09:29:04,VALID,917.783,VALID,0,VALID,91.2904,VALID,272.578,VALID,20.969,INVALID,360,VALID,0,
2013-07-13, 09:30:04,VALID,917.919,VALID,0,VALID,89.2321,VALID,276.339,VALID,20.891,VALID,20,VALID,0,
2013-07-13, 09:31:04,VALID,917.848,VALID,0,VALID,88.9653,VALID,282.355,VALID,20.8519,VALID,320,VALID,0,
2013-07-13, 09:32:04,VALID,917.84,VALID,0,VALID,89.5523,VALID,288.479,VALID,20.891,VALID,9,VALID,0,